Time,TemperatureF,DewpointF,PressureIn,WindDirection,WindDirectionDegrees,WindSpeedMPH,WindSpeedGustMPH,Humidity,HourlyPrecipIn,Conditions,Clouds,dailyrainin,SoftwareType,DateUTC
2013-03-05 00:02:00,31.5,22.0,29.94,NNW,335,1.0,10.0,67,0.00,,,0.00,weatherlink.com 1.10,2013-03-05 05:02:00,
2013-03-05 00:17:00,31.4,22.0,29.94,West,271,2.0,12.0,67,0.00,,,0.00,weatherlink.com 1.10,2013-03-05 05:17:00,
2013-03-05 00:32:00,31.4,22.0,29.95,WNW,283,6.0,13.0,67,0.00,,,0.00,weatherlink.com 1.10,2013-03-05 05:32:00,
2013-03-05 00:47:00,31.4,22.0,29.95,West,270,12.0,17.0,67,0.00,,,0.00,weatherlink.com 1.10,2013-03-05 05:47:00,
2013-03-05 01:02:00,31.4,22.0,29.96,North,350,0.0,13.0,67,0.00,,,0.00,weatherlink.com 1.10,2013-03-05 06:02:00,
2013-03-05 01:17:00,31.3,21.0,29.96,WNW,300,1.0,12.0,67,0.00,,,0.00,weatherlink.com 1.10,2013-03-05 06:17:00,
2013-03-05 01:32:00,31.3,21.0,29.96,NW,321,5.0,12.0,67,0.00,,,0.00,weatherlink.com 1.10,2013-03-05 06:32:00,
2013-03-05 01:47:00,31.3,21.0,29.96,NW,319,3.0,11.0,67,0.00,,,0.00,weatherlink.com 1.10,2013-03-05 06:47:00,
2013-03-05 02:02:00,31.3,21.0,29.96,NNW,335,3.0,11.0,67,0.00,,,0.00,weatherlink.com 1.10,2013-03-05 07:02:00,
2013-03-05 02:17:00,31.2,22.0,29.95,NNW,344,9.0,9.0,68,0.00,,,0.00,weatherlink.com 1.10,2013-03-05 07:17:00,
2013-03-05 02:32:00,31.2,22.0,29.95,WNW,300,4.0,16.0,68,0.00,,,0.00,weatherlink.com 1.10,2013-03-05 07:32:00,
2013-03-05 02:47:00,30.8,22.0,29.94,WSW,249,1.0,11.0,69,0.00,,,0.00,weatherlink.com 1.10,2013-03-05 07:47:00,
2013-03-05 03:02:00,30.6,22.0,29.95,West,276,6.0,21.0,69,0.00,,,0.00,weatherlink.com 1.10,2013-03-05 08:02:00,
2013-03-05 03:17:00,30.5,21.0,29.95,NW,319,4.0,13.0,68,0.00,,,0.00,weatherlink.com 1.10,2013-03-05 08:17:00,
2013-03-05 03:32:00,30.4,21.0,29.95,WNW,291,3.0,14.0,68,0.00,,,0.00,weatherlink.com 1.10,2013-03-05 08:32:00,
2013-03-05 03:47:00,30.3,21.0,29.96,NW,320,0.0,11.0,69,0.00,,,0.00,weatherlink.com 1.10,2013-03-05 08:47:00,
2013-03-05 04:02:00,30.2,21.0,29.96,WNW,296,3.0,10.0,69,0.00,,,0.00,weatherlink.com 1.10,2013-03-05 09:02:00,
2013-03-05 04:17:00,30.2,22.0,29.96,WSW,247,1.0,7.0,70,0.00,,,0.00,weatherlink.com 1.10,2013-03-05 09:17:00,
2013-03-05 04:47:00,30.1,21.0,29.98,NW,307,8.0,9.0,70,0.00,,,0.00,weatherlink.com 1.10,2013-03-05 09:47:00,
2013-03-05 05:02:00,30.2,22.0,29.98,West,267,5.0,8.0,70,0.00,,,0.00,weatherlink.com 1.10,2013-03-05 10:02:00,
2013-03-05 05:17:00,30.2,22.0,29.98,West,275,1.0,8.0,70,0.00,,,0.00,weatherlink.com 1.10,2013-03-05 10:17:00,
2013-03-05 05:32:00,30.2,22.0,30.00,West,266,1.0,7.0,70,0.00,,,0.00,weatherlink.com 1.10,2013-03-05 10:32:00,
2013-03-05 05:47:00,30.3,22.0,30.00,NNW,345,0.0,6.0,70,0.00,,,0.00,weatherlink.com 1.10,2013-03-05 10:47:00,
2013-03-05 06:03:00,30.3,22.0,30.00,NW,313,0.0,4.0,70,0.00,,,0.00,weatherlink.com 1.10,2013-03-05 11:03:00,
2013-03-05 06:18:00,30.1,21.0,29.99,WNW,302,4.0,10.0,70,0.00,,,0.00,weatherlink.com 1.10,2013-03-05 11:18:00,
2013-03-05 06:33:00,29.9,22.0,29.99,WNW,288,2.0,12.0,71,0.00,,,0.00,weatherlink.com 1.10,2013-03-05 11:33:00,
2013-03-05 06:48:00,29.8,21.0,30.00,WSW,257,3.0,10.0,71,0.00,,,0.00,weatherlink.com 1.10,2013-03-05 11:48:00,
2013-03-05 07:03:00,29.9,22.0,30.00,WSW,237,1.0,8.0,71,0.00,,,0.00,weatherlink.com 1.10,2013-03-05 12:03:00,
2013-03-05 07:18:00,30.2,22.0,30.01,NNW,330,2.0,7.0,72,0.00,,,0.00,weatherlink.com 1.10,2013-03-05 12:18:00,
2013-03-05 07:33:00,31.0,22.0,30.01,West,278,5.0,8.0,70,0.00,,,0.00,weatherlink.com 1.10,2013-03-05 12:33:00,
2013-03-05 07:48:00,31.4,22.0,30.01,NW,319,2.0,10.0,69,0.00,,,0.00,weatherlink.com 1.10,2013-03-05 12:48:00,
2013-03-05 08:03:00,31.4,22.0,30.02,NNW,327,3.0,11.0,68,0.00,,,0.00,weatherlink.com 1.10,2013-03-05 13:03:00,
2013-03-05 08:18:00,31.6,22.0,30.02,WNW,300,2.0,14.0,68,0.00,,,0.00,weatherlink.com 1.10,2013-03-05 13:18:00,
2013-03-05 08:33:00,32.4,23.0,30.02,NW,317,7.0,11.0,67,0.00,,,0.00,weatherlink.com 1.10,2013-03-05 13:33:00,
2013-03-05 08:48:00,33.1,23.0,30.02,NNE,14,0.0,12.0,66,0.00,,,0.00,weatherlink.com 1.10,2013-03-05 13:48:00,
2013-03-05 09:03:00,33.8,22.0,30.02,NNE,15,2.0,11.0,63,0.00,,,0.00,weatherlink.com 1.10,2013-03-05 14:03:00,
2013-03-05 09:18:00,34.8,23.0,30.02,NE,35,9.0,9.0,62,0.00,,,0.00,weatherlink.com 1.10,2013-03-05 14:18:00,
2013-03-05 09:33:00,34.8,22.0,30.02,WNW,286,0.0,8.0,61,0.00,,,0.00,weatherlink.com 1.10,2013-03-05 14:33:00,
2013-03-05 09:48:00,35.5,23.0,30.02,West,276,4.0,6.0,61,0.00,,,0.00,weatherlink.com 1.10,2013-03-05 14:48:00,
2013-03-05 10:03:00,36.1,23.0,30.02,NW,323,7.0,11.0,60,0.00,,,0.00,weatherlink.com 1.10,2013-03-05 15:03:00,
2013-03-05 10:18:00,36.3,23.0,30.02,North,355,2.0,11.0,59,0.00,,,0.00,weatherlink.com 1.10,2013-03-05 15:18:00,
2013-03-05 10:33:00,37.5,25.0,30.02,ENE,65,1.0,5.0,60,0.00,,,0.00,weatherlink.com 1.10,2013-03-05 15:33:00,
2013-03-05 10:48:00,37.4,24.0,30.01,West,281,4.0,8.0,58,0.00,,,0.00,weatherlink.com 1.10,2013-03-05 15:48:00,
2013-03-05 11:03:00,37.3,24.0,30.01,West,279,2.0,9.0,58,0.00,,,0.00,weatherlink.com 1.10,2013-03-05 16:03:00,
2013-03-05 11:18:00,38.2,24.0,30.00,WNW,284,6.0,11.0,57,0.00,,,0.00,weatherlink.com 1.10,2013-03-05 16:18:00,
2013-03-05 11:33:00,39.0,25.0,30.00,ENE,71,2.0,7.0,58,0.00,,,0.00,weatherlink.com 1.10,2013-03-05 16:33:00,
2013-03-05 11:48:00,40.0,25.0,30.00,WNW,302,4.0,9.0,55,0.00,,,0.00,weatherlink.com 1.10,2013-03-05 16:48:00,
2013-03-05 12:18:00,40.1,25.0,29.99,NW,313,3.0,9.0,55,0.00,,,0.00,weatherlink.com 1.10,2013-03-05 17:18:00,
2013-03-05 12:33:00,42.2,26.0,29.99,North,349,3.0,8.0,53,0.00,,,0.00,weatherlink.com 1.10,2013-03-05 17:33:00,
2013-03-05 12:48:00,43.0,25.0,29.98,NE,40,2.0,9.0,50,0.00,,,0.00,weatherlink.com 1.10,2013-03-05 17:48:00,
2013-03-05 13:03:00,44.6,26.0,29.98,NW,314,1.0,8.0,48,0.00,,,0.00,weatherlink.com 1.10,2013-03-05 18:03:00,
2013-03-05 13:18:00,44.6,26.0,29.98,WNW,290,5.0,8.0,49,0.00,,,0.00,weatherlink.com 1.10,2013-03-05 18:18:00,
2013-03-05 13:34:00,44.9,27.0,29.98,SSW,209,5.0,8.0,49,0.00,,,0.00,weatherlink.com 1.10,2013-03-05 18:34:00,
2013-03-05 13:49:00,45.5,27.0,29.97,North,5,4.0,6.0,48,0.00,,,0.00,weatherlink.com 1.10,2013-03-05 18:49:00,
2013-03-05 14:04:00,46.0,26.0,29.97,ENE,68,7.0,8.0,46,0.00,,,0.00,weatherlink.com 1.10,2013-03-05 19:04:00,
2013-03-05 14:19:00,46.9,27.0,29.97,West,279,3.0,8.0,46,0.00,,,0.00,weatherlink.com 1.10,2013-03-05 19:19:00,
2013-03-05 14:34:00,46.3,26.0,29.97,NNE,22,2.0,7.0,46,0.00,,,0.00,weatherlink.com 1.10,2013-03-05 19:34:00,
2013-03-05 14:49:00,45.7,26.0,29.96,NW,314,4.0,9.0,47,0.00,,,0.00,weatherlink.com 1.10,2013-03-05 19:49:00,
2013-03-05 15:04:00,46.3,26.0,29.96,NNE,14,1.0,6.0,46,0.00,,,0.00,weatherlink.com 1.10,2013-03-05 20:04:00,
2013-03-05 15:19:00,46.9,26.0,29.96,SW,215,2.0,5.0,45,0.00,,,0.00,weatherlink.com 1.10,2013-03-05 20:19:00,
2013-03-05 15:34:00,47.1,26.0,29.95,NNW,340,5.0,8.0,44,0.00,,,0.00,weatherlink.com 1.10,2013-03-05 20:34:00,
2013-03-05 15:49:00,46.8,26.0,29.95,NE,47,2.0,7.0,45,0.00,,,0.00,weatherlink.com 1.10,2013-03-05 20:49:00,
2013-03-05 16:04:00,46.4,26.0,29.95,SE,132,3.0,6.0,45,0.00,,,0.00,weatherlink.com 1.10,2013-03-05 21:04:00,
2013-03-05 16:19:00,46.3,26.0,29.95,East,85,1.0,6.0,46,0.00,,,0.00,weatherlink.com 1.10,2013-03-05 21:19:00,
2013-03-05 16:34:00,45.8,25.0,29.94,East,83,1.0,6.0,45,0.00,,,0.00,weatherlink.com 1.10,2013-03-05 21:34:00,
2013-03-05 16:49:00,45.8,25.0,29.94,ENE,75,2.0,7.0,45,0.00,,,0.00,weatherlink.com 1.10,2013-03-05 21:49:00,
2013-03-05 17:04:00,45.2,25.0,29.94,ENE,64,1.0,7.0,46,0.00,,,0.00,weatherlink.com 1.10,2013-03-05 22:04:00,
2013-03-05 17:19:00,44.8,25.0,29.95,ENE,60,0.0,6.0,47,0.00,,,0.00,weatherlink.com 1.10,2013-03-05 22:19:00,
2013-03-05 17:34:00,44.5,25.0,29.95,ENE,62,1.0,4.0,47,0.00,,,0.00,weatherlink.com 1.10,2013-03-05 22:34:00,
2013-03-05 17:49:00,43.6,25.0,29.96,ENE,58,3.0,6.0,48,0.00,,,0.00,weatherlink.com 1.10,2013-03-05 22:49:00,
2013-03-05 18:04:00,42.6,24.0,29.96,NE,45,0.0,4.0,49,0.00,,,0.00,weatherlink.com 1.10,2013-03-05 23:04:00,
2013-03-05 18:19:00,41.6,25.0,29.96,ENE,67,0.0,1.0,51,0.00,,,0.00,weatherlink.com 1.10,2013-03-05 23:19:00,
2013-03-05 18:34:00,40.6,24.0,29.97,ENE,67,0.0,1.0,53,0.00,,,0.00,weatherlink.com 1.10,2013-03-05 23:34:00,
2013-03-05 18:49:00,39.6,24.0,29.97,East,82,0.0,1.0,55,0.00,,,0.00,weatherlink.com 1.10,2013-03-05 23:49:00,
2013-03-05 19:04:00,38.4,25.0,29.97,East,82,0.0,2.0,58,0.00,,,0.00,weatherlink.com 1.10,2013-03-06 00:04:00,
2013-03-05 19:19:00,37.5,25.0,29.97,East,82,1.0,2.0,60,0.00,,,0.00,weatherlink.com 1.10,2013-03-06 00:19:00,
2013-03-05 19:34:00,36.4,24.0,29.97,East,86,1.0,2.0,62,0.00,,,0.00,weatherlink.com 1.10,2013-03-06 00:34:00,
2013-03-05 19:49:00,35.6,24.0,29.97,East,89,1.0,2.0,64,0.00,,,0.00,weatherlink.com 1.10,2013-03-06 00:49:00,
2013-03-05 20:04:00,34.2,24.0,29.96,East,94,1.0,3.0,67,0.00,,,0.00,weatherlink.com 1.10,2013-03-06 01:04:00,
2013-03-05 20:19:00,33.6,25.0,29.96,NNE,27,3.0,4.0,70,0.00,,,0.00,weatherlink.com 1.10,2013-03-06 01:19:00,
2013-03-05 20:34:00,35.1,25.0,29.96,East,86,2.0,3.0,67,0.00,,,0.00,weatherlink.com 1.10,2013-03-06 01:34:00,
2013-03-05 20:49:00,36.4,25.0,29.96,East,92,0.0,7.0,64,0.00,,,0.00,weatherlink.com 1.10,2013-03-06 01:49:00,
2013-03-05 21:04:00,37.2,26.0,29.97,ESE,115,1.0,8.0,63,0.00,,,0.00,weatherlink.com 1.10,2013-03-06 02:04:00,
2013-03-05 21:19:00,37.8,26.0,29.97,SSE,160,3.0,7.0,62,0.00,,,0.00,weatherlink.com 1.10,2013-03-06 02:19:00,
2013-03-05 21:34:00,37.9,25.0,29.97,ESE,110,2.0,7.0,61,0.00,,,0.00,weatherlink.com 1.10,2013-03-06 02:34:00,
2013-03-05 21:49:00,37.9,26.0,29.97,East,92,1.0,3.0,62,0.00,,,0.00,weatherlink.com 1.10,2013-03-06 02:49:00,
2013-03-05 22:04:00,37.7,26.0,29.97,NE,49,3.0,3.0,62,0.00,,,0.00,weatherlink.com 1.10,2013-03-06 03:04:00,
2013-03-05 22:19:00,37.8,26.0,29.97,NE,38,4.0,4.0,62,0.00,,,0.00,weatherlink.com 1.10,2013-03-06 03:19:00,
2013-03-05 22:34:00,38.0,25.0,29.96,ESE,119,2.0,6.0,61,0.00,,,0.00,weatherlink.com 1.10,2013-03-06 03:34:00,
2013-03-05 22:49:00,37.4,25.0,29.96,East,88,2.0,4.0,62,0.00,,,0.00,weatherlink.com 1.10,2013-03-06 03:49:00,
2013-03-05 23:04:00,36.7,25.0,29.95,East,89,0.0,5.0,64,0.00,,,0.00,weatherlink.com 1.10,2013-03-06 04:04:00,
2013-03-05 23:19:00,35.9,25.0,29.95,ENE,64,2.0,2.0,66,0.00,,,0.00,weatherlink.com 1.10,2013-03-06 04:19:00,
2013-03-05 23:34:00,35.4,25.0,29.95,East,98,1.0,3.0,67,0.00,,,0.00,weatherlink.com 1.10,2013-03-06 04:34:00,
2013-03-05 23:49:00,35.2,26.0,29.94,ESE,102,1.0,3.0,68,0.00,,,0.00,weatherlink.com 1.10,2013-03-06 04:49:00,